Home   Weather   Fetsund   Past weeks

Flag for Norway Past Weather in Fetsund, Norway — Yesterday and Last 2 Weeks

Now
38 °F

Chilly.


Feels Like: 38 °F
Forecast: 29 / 37 °F
Wind: 1 mph from South

Location: Oslo-Blindern

Current Time: Feb 20, 2017 at 12:23:30 pm

Latest Report: Feb 20, 2017 at 11:00 am


Visibility: 10 mi

Pressure: 29.21 "Hg

Humidity: 95%

Dew Point: 36 °F

Location of FetsundLocation

Past Weather in Fetsund — Graph

°F

Fetsund Temperature Yesterday

Maximum temperature yesterday: 40 °F (at 3:00 pm)
Minimum temperature yesterday: 33 °F (at 9:00 am)
Average temperature yesterday: 35 °F

High & Low Weather Summary for the Past Weeks

 TemperatureHumidityPressure
High40 °F (Feb 19, 3:00 pm)100% (Feb 18, 5:00 pm)30.93 "Hg (Feb 18, 5:00 pm)
Low18 °F (Feb 8, 7:00 am)63% (Feb 17, 2:00 pm)29.21 "Hg (Feb 20, 10:00 am)
Average27 °F86%30.42 "Hg
* Reported Feb 5 11:00 am — Feb 20 11:00 am, Fetsund, Weather by CustomWeather, © 2017

Note: Actual official high and low records may vary slightly from our data, if they occured in-between our weather recording intervals... More about our weather records

Advertising

Fetsund Weather History for the Previous 24 Hours

Scroll right to see more
 ConditionsComfort  
Time TempWeatherWind HumidityBarometerVisibility
11:00 am
Mon, Feb 20
38 °FChilly.1 mph95%29.21 "Hg10 mi
10:00 am37 °FFog.1 mph95%29.21 "Hg16 mi
9:00 am37 °FChilly.1 mph95%29.23 "Hg28 mi
8:00 am36 °FChilly.2 mph96%29.23 "Hg31 mi
7:00 am34 °FPassing clouds.1 mph95%29.23 "Hg47 mi
6:00 am34 °FChilly.1 mph94%29.26 "Hg31 mi
5:00 am35 °FChilly.1 mph91%29.26 "Hg31 mi
4:00 am36 °FChilly.No wind88%29.29 "Hg31 mi
3:00 am38 °FChilly.3 mph84%29.32 "Hg31 mi
2:00 am38 °FChilly.1 mph82%29.38 "Hg31 mi
1:00 am39 °FChilly.3 mph79%29.41 "Hg31 mi
12:00 am38 °FChilly.1 mph82%29.44 "Hg31 mi
11:00 pm
Sun, Feb 19
37 °FChilly.1 mph85%29.44 "Hg31 mi
10:00 pm36 °FOvercast.2 mph90%29.47 "Hg19 mi
9:00 pm36 °FChilly.2 mph90%29.50 "Hg22 mi
8:00 pm34 °FChilly.1 mph96%29.50 "Hg17 mi
7:00 pm34 °FFog.1 mph95%29.53 "Hg19 mi
6:00 pm36 °FChilly.1 mph96%29.54 "HgN/A
5:00 pm36 °FChilly.1 mph94%29.54 "Hg6 mi
4:00 pm38 °FFog.1 mph89%29.55 "Hg6 mi
3:00 pm40 °FQuite cool.No wind88%29.56 "Hg16 mi
2:00 pm39 °FChilly.1 mph95%29.57 "Hg11 mi
1:00 pm36 °FFog.1 mph100%29.59 "Hg2 mi
12:00 pm35 °FDuststorm.1 mph100%29.61 "Hg0 mi
Weather by CustomWeather, © 2017

See weather overviewHow to use our weather pages